Location: Newark
(1.2833°S, 36.8167°E)
Time: 13:39:28
(UTC+00:00)

Envisat - Visible Passes

Search period start: 29 September 2020 00:00
Search period end: 09 October 2020 00:00
Orbit: 764 x 766 km, 98.1° (Epoch: 29 September)

Date Brightness Start Highest point End Pass type
(mag) Time Alt. Az. Time Alt. Az. Time Alt. Az.
29 Sep 4.0 02:54:21 10° NNE 02:59:16 53° ESE 03:04:12 10° S visible
30 Sep 6.0 02:19:07 10° ENE 02:22:35 19° ESE 02:26:04 10° SSE visible
30 Sep 6.5 16:30:34 10° WSW 16:31:40 11° WSW 16:32:47 10° W visible
01 Oct 5.2 15:50:34 10° SSW 15:55:01 31° WSW 15:59:28 10° NW visible
02 Oct 4.7 02:43:15 10° NE 02:47:56 38° ESE 02:52:37 10° S visible
03 Oct 6.2 02:08:50 10° ENE 02:11:17 14° ESE 02:13:43 10° SE visible
03 Oct 6.2 16:17:31 10° SW 16:20:22 15° WSW 16:23:12 10° WNW visible
04 Oct 4.5 15:38:54 10° S 15:43:41 43° WSW 15:48:28 10° NNW visible
05 Oct 5.3 02:32:18 10° NE 02:36:36 28° ESE 02:40:55 10° SSE visible
06 Oct 5.9 16:05:19 10° SSW 16:09:02 21° WSW 16:12:46 10° NW visible
07 Oct 3.8 02:56:58 10° NNE 03:01:57 59° ESE 03:06:57 10° S visible
08 Oct 5.8 02:21:32 10° NE 02:25:16 21° ESE 02:29:02 10° SSE visible
